Flag for U.S.A. Weather past 2 weeks in Palm Springs, California, U.S.A.

Now
90 °F

Sunny.


Feels Like: 86 °F
Forecast: 69 / 92 °F
Wind: 9 mph from East

Location: Palm Springs Regional Airport

Current Time: Apr 19, 2015 at 12:42:32 PM

Latest Report: Apr 19, 2015 at 11:53 AM


Visibility: 10 mi

Pressure: 29.85 "Hg

Humidity: 8%

Dew point: 21 °F

Location of Palm SpringsLocation

Historic Weather in Palm Springs — Graph

°F

Palm Springs temperature yesterday

Maximum temperature yesterday: 96 °F (at 3:53 PM)
Minimum temperature yesterday: 61 °F (at 5:53 AM)
Average temperature yesterday: 81 °F

Past Weeks' High & Low Weather Summary

 TemperatureHumidityPressure
High96 °F (Apr 18, 3:53 PM)60% (Apr 11, 6:53 AM)30.09 "Hg (Apr 11, 6:53 AM)
Low52 °F (Apr 7, 4:53 AM)4% (Apr 4, 11:53 AM)29.68 "Hg (Apr 5, 3:53 PM)
Average74 °F22%29.90 "Hg
* Reported Apr 4 10:53 AM — Apr 19 10:53 AM, Palm Springs, Weather by CustomWeather, © 2015

Note: Actual official high and low records may vary slightly from our data, if they occured in-between our weather recording intervals... More about our weather records

Advertising

Palm Springs weather history for previous 24 hours

 ConditionsComfort  
Time TempWeatherWind HumidityBarometerVisibility
10:53 AM
Sun, Apr 19
86 °FSunny.6 mph11%29.87 "Hg10 mi
9:53 AM83 °FSunny.No wind10%29.87 "Hg10 mi
8:53 AM77 °FSunny.3 mph18%29.87 "Hg9 mi
7:53 AM71 °FSunny.No wind27%29.88 "Hg10 mi
6:53 AM67 °FClear.3 mph32%29.87 "Hg10 mi
5:53 AM63 °FClear.No wind40%29.85 "Hg10 mi
4:53 AM68 °FClear.No wind30%29.84 "Hg10 mi
3:53 AM69 °FClear.No wind30%29.84 "Hg10 mi
2:53 AM70 °FClear.No wind28%29.84 "Hg10 mi
1:53 AM74 °FClear.No wind21%29.85 "Hg10 mi
12:53 AM73 °FClear.No wind22%29.85 "Hg10 mi
11:53 PM
Sat, Apr 18
78 °FClear.No wind16%29.84 "Hg10 mi
10:53 PM82 °FClear.16 mph11%29.83 "Hg10 mi
9:53 PM82 °FClear.17 mph11%29.83 "Hg10 mi
8:53 PM84 °FClear.13 mph12%29.82 "Hg10 mi
7:53 PM86 °FSunny.17 mph12%29.80 "Hg10 mi
6:53 PM89 °FSunny.15 mph11%29.78 "Hg10 mi
5:53 PM93 °FSunny.15 mph8%29.78 "Hg10 mi
4:53 PM96 °FSunny.22 mph6%29.80 "Hg10 mi
3:53 PM96 °FSunny.7 mph5%29.80 "Hg10 mi
2:53 PM94 °FSunny.6 mph5%29.84 "Hg10 mi
1:53 PM93 °FSunny.5 mph6%29.87 "Hg10 mi
12:53 PM90 °FSunny.6 mph6%29.89 "Hg10 mi
Weather by CustomWeather, © 2015

See weather overviewHow to use our weather pages